DW1458 Weather Reports


Display with metric or nautical units.
time (UTC)temp
F
wind
direction
speed
MPH
gust
MPH
rain 1hr
in
rain 24hr
in
rain mn
in
humidity
%
barometer
mb
20210923173037 74 300 4.0 11.0 0.00 0.00 0.00 52 1017.6
20210923170105 74 352 2.0 10.0 0.00 0.00 0.00 55 1017.8
20210923164539 73 291 0.0 10.0 0.00 0.00 0.00 57 1017.9
20210923163129 73 270 1.0 8.0 0.00 0.00 0.00 59 1018.1
20210923161532 73 73 1.0 7.0 0.00 0.00 0.00 56 1018.2
20210923154543 71 297 2.0 8.0 0.00 0.00 0.00 59 1018.2
20210923153006 70 269 0.0 9.0 0.00 0.00 0.00 61 1018.3
20210923151556 69 321 5.0 11.0 0.00 0.00 0.00 62 1018.3
20210923150028 69 84 1.0 9.0 0.00 0.00 0.00 67 1018.3
20210923144608 68 75 3.0 10.0 0.00 0.00 0.00 69 1018.3
20210923143049 67 100 1.0 7.0 0.00 0.00 0.00 72 1018.3
20210923141501 67 173 1.0 5.0 0.00 0.00 0.00 74 1018.3
20210923140121 66 78 0.0 7.0 0.00 0.00 0.00 78 1018.2
20210923134511 64 138 1.0 8.0 0.00 0.00 0.00 80 1018.1
20210923133223 63 64 0.0 8.0 0.00 0.00 0.00 82 1018.2
20210923124608 60 253 0.0 3.0 0.00 0.00 0.00 92 1017.8
20210923123005 59 290 0.0 1.0 0.00 0.00 0.00 94 1017.5
20210923121657 58 290 0.0 3.0 0.00 0.00 0.00 94 1017.4
20210923120105 56 281 0.0 3.0 0.00 0.00 0.00 94 1017.3
20210923113049 56 268 0.0 2.0 0.00 0.00 0.00 94 1017.1
20210923111514 56 134 0.0 2.0 0.00 0.00 0.00 95 1017.0
20210923110243 57 189 0.0 1.0 0.00 0.00 0.00 95 1017.0
20210923104515 56 285 0.0 1.0 0.00 0.00 0.00 95 1017.0
20210923103120 56 267 0.0 1.0 0.00 0.00 0.00 94 1016.8
20210923101534 57 271 0.0 1.0 0.00 0.00 0.00 94 1016.7
20210923094549 57 268 0.0 1.0 0.00 0.00 0.00 94 1016.7
20210923093027 57 269 0.0 0.0 0.00 0.00 0.00 94 1016.6
20210923091639 57 275 0.0 1.0 0.00 0.00 0.00 94 1016.4
20210923090033 57 276 0.0 0.0 0.00 0.00 0.00 93 1016.6
20210923083047 58 276 0.0 0.0 0.00 0.00 0.00 92 1016.6
20210923081510 59 276 0.0 0.0 0.00 0.00 0.00 92 1016.8
20210923080058 59 277 0.0 1.0 0.00 0.00 0.00 93 1016.6
20210923074551 59 290 0.0 1.0 0.00 0.00 0.00 93 1016.8
20210923071624 59 250 0.0 1.0 0.00 0.00 0.00 92 1016.9
20210923070043 59 65 0.0 0.0 0.00 0.00 0.00 91 1016.7
20210923064613 60 58 0.0 0.0 0.00 0.00 0.00 91 1016.7
20210923063028 60 274 0.0 2.0 0.00 0.00 0.00 91 1016.7
20210923061518 60 287 0.0 1.0 0.00 0.00 0.00 91 1016.7
20210923060200 60 112 0.0 1.0 0.00 0.00 0.00 92 1016.8
20210923054529 60 110 0.0 1.0 0.00 0.00 0.00 92 1016.9
20210923051654 60 108 0.0 0.0 0.00 0.00 0.00 89 1017.2
20210923050016 62 108 0.0 0.0 0.00 0.00 0.00 89 1017.2
20210923044628 62 107 0.0 1.0 0.00 0.00 0.00 88 1017.2
20210923043022 63 134 0.0 1.0 0.00 0.00 0.00 87 1017.1
20210923041623 64 290 0.0 1.0 0.00 0.00 0.00 86 1017.1
20210923040029 64 277 0.0 2.0 0.00 0.00 0.00 86 1017.2
20210923034743 65 240 0.0 2.0 0.00 0.00 0.00 85 1017.2
20210923033033 65 314 0.0 4.0 0.00 0.00 0.00 84 1017.1
20210923031601 66 122 0.0 4.0 0.00 0.00 0.00 84 1017.0
20210923030055 66 138 0.0 6.0 0.00 0.00 0.00 83 1016.9
20210923023032 67 307 1.0 4.0 0.00 0.00 0.00 82 1016.7
20210923020102 68 274 0.0 6.0 0.00 0.00 0.00 80 1016.5
20210923014615 69 319 3.0 8.0 0.00 0.00 0.00 79 1016.4
20210923011613 70 280 3.0 10.0 0.00 0.00 0.00 78 1016.0
20210923010004 70 304 2.0 11.0 0.00 0.00 0.00 78 1015.7
20210923004553 70 350 3.0 9.0 0.00 0.00 0.00 77 1015.5
20210923003010 70 305 2.0 9.0 0.00 0.00 0.00 77 1015.3
20210923001631 71 305 4.0 7.0 0.00 0.00 0.00 76 1015.0
20210923000024 71 264 4.0 12.0 0.00 0.00 0.00 77 1014.7
20210922234742 71 257 2.0 6.0 0.00 0.00 0.00 77 1014.6
20210922233103 72 339 1.0 8.0 0.00 0.00 0.00 77 1014.5
20210922230106 73 314 2.0 10.0 0.00 0.00 0.00 74 1014.4
20210922224511 74 300 4.0 9.0 0.00 0.00 0.00 74 1014.4
20210922223113 74 358 5.0 14.0 0.00 0.00 0.00 74 1014.5
20210922221512 75 330 2.0 10.0 0.00 0.00 0.00 72 1014.6
20210922220205 75 307 4.0 12.0 0.00 0.00 0.00 72 1014.5
20210922214525 76 276 4.0 12.0 0.00 0.00 0.00 73 1014.4
20210922213141 75 297 3.0 11.0 0.00 0.00 0.00 73 1014.3
20210922211552 76 339 4.0 14.0 0.00 0.00 0.00 72 1014.3
20210922204553 77 304 6.0 13.0 0.00 0.00 0.00 72 1014.3
20210922203001 79 307 6.0 11.0 0.00 0.00 0.00 71 1014.3
20210922201546 80 311 5.0 10.0 0.00 0.00 0.00 69 1014.2
20210922200013 80 200 2.0 12.0 0.00 0.00 0.00 69 1014.4
20210922194735 81 294 2.0 9.0 0.00 0.00 0.00 69 1014.3
20210922193025 80 328 3.0 8.0 0.00 0.00 0.00 68 1014.4
20210922191637 79 288 0.0 10.0 0.00 0.00 0.00 73 1014.6
20210922190041 79 317 5.0 12.0 0.00 0.00 0.00 73 1014.8
20210922183025 80 287 3.0 16.0 0.00 0.00 0.00 77 1015.2
20210922180102 79 262 3.0 12.0 0.00 0.00 0.00 82 1015.5
20210922174533 80 316 4.0 11.0 0.00 0.00 0.00 79 1015.5